York, NE

2:33 PM CDT on July 26, 2017 (GMT -0500)
York Municipal

Weather History for KJYR - May, 2013

Change the Weather History Date:

Friday, May 24, 2013

  Actual Average Record
Temperature  
Mean Temperature 62 °F -  
Max Temperature 75 °F 76 °F 100 °F (1967)
Min Temperature 50 °F 53 °F 41 °F (1949)
Degree Days  
Heating Degree Days 2    
Growing Degree Days 12 (Base 50)    
Moisture  
Dew Point 52 °F    
Average Humidity 68    
Maximum Humidity 94    
Minimum Humidity 47    
Precipitation  
Precipitation 0.00 in - - ()
Sea Level Pressure  
Sea Level Pressure 30.15 in    
Wind  
Wind Speed 12 mph (SSE)    
Max Wind Speed 28 mph    
Max Gust Speed 40 mph    
Visibility 10 miles    
Events Rain    
Averages and records for this station are not official NWS values.
T = Trace of Precipitation, MM = Missing Value Source: NWS Daily Summary

Daily Weather History Graph

Daily Weather History Graph

Search for Another Location

Airport or City:

Trip Planner

Search our weather history database for the weather conditions in past years. The results will help you decide how hot, cold, wet, or windy it might be!

Date:

Astronomy

May. 24, 2013 Rise Set
Actual Time 6:05 AM CDT 8:49 PM CDT
Civil Twilight 5:33 AM CDT 9:22 PM CDT
Nautical Twilight 4:52 AM CDT 10:02 PM CDT
Astronomical Twilight 4:07 AM CDT 10:48 PM CDT
Moon 8:33 PM CDT (5/24) 5:38 AM CDT (5/24)
Length of Visible Light 15h 48m
Length of Day
14h 44m
Full, 100% of the Moon is Illuminated
May 24
Full
May 24
Full
May 31
Last Quarter
Jun 8
New
Jun 16
First Quarter

Hourly Weather History & Observations

Time (CDT) Temp. Dew Point Humidity Pressure Visibility Wind Dir Wind Speed Gust Speed Precip Events Conditions
12:15 AM 53.6 °F 46.4 °F 77% 30.22 in 10.0 mi SSE 5.8 mph - N/A   Clear
12:35 AM 53.6 °F 46.4 °F 77% 30.22 in 10.0 mi SSE 4.6 mph - N/A   Clear
12:55 AM 53.6 °F 48.2 °F 82% 30.23 in 10.0 mi SSE 5.8 mph - N/A   Clear
1:15 AM 50.0 °F 46.4 °F 87% 30.22 in 10.0 mi SE 6.9 mph - N/A   Clear
1:35 AM 50.0 °F 46.4 °F 87% 30.20 in 10.0 mi East 6.9 mph - N/A   Clear
1:55 AM 50.0 °F 46.4 °F 87% 30.20 in 10.0 mi ESE 6.9 mph - N/A   Clear
2:15 AM 51.8 °F 48.2 °F 88% 30.21 in 10.0 mi SE 8.1 mph - N/A   Clear
2:35 AM 53.6 °F 48.2 °F 82% 30.21 in 10.0 mi SSE 8.1 mph - N/A   Clear
2:55 AM 51.8 °F 48.2 °F 88% 30.22 in 10.0 mi SSE 6.9 mph - N/A   Clear
3:15 AM 50.0 °F 48.2 °F 94% 30.23 in 10.0 mi SSE 5.8 mph - N/A   Clear
3:35 AM 51.8 °F 48.2 °F 88% 30.23 in 10.0 mi South 5.8 mph - N/A   Clear
3:55 AM 51.8 °F 48.2 °F 88% 30.24 in 10.0 mi SSE 5.8 mph - N/A   Mostly Cloudy
4:15 AM 53.6 °F 48.2 °F 82% 30.24 in 10.0 mi South 5.8 mph - N/A   Overcast
4:35 AM 53.6 °F 50.0 °F 88% 30.24 in 10.0 mi South 8.1 mph - N/A   Overcast
4:55 AM 53.6 °F 50.0 °F 88% 30.24 in 10.0 mi SSE 6.9 mph - N/A   Overcast
5:15 AM 53.6 °F 50.0 °F 88% 30.24 in 10.0 mi SSE 9.2 mph - N/A   Overcast
5:35 AM 53.6 °F 50.0 °F 88% 30.24 in 10.0 mi South 9.2 mph - N/A   Mostly Cloudy
5:55 AM 53.6 °F 50.0 °F 88% 30.24 in 10.0 mi SSE 8.1 mph - N/A   Mostly Cloudy
6:15 AM 53.6 °F 50.0 °F 88% 30.24 in 10.0 mi SSE 10.4 mph - N/A   Scattered Clouds
6:35 AM 53.6 °F 50.0 °F 88% 30.24 in 10.0 mi SSE 12.7 mph - N/A   Mostly Cloudy
6:55 AM 53.6 °F 50.0 °F 88% 30.25 in 10.0 mi South 12.7 mph - N/A   Overcast
7:15 AM 55.4 °F 50.0 °F 82% 30.24 in 10.0 mi SSE 15.0 mph 18.4 mph N/A   Overcast
7:35 AM 55.4 °F 48.2 °F 77% 30.25 in 10.0 mi South 16.1 mph 20.7 mph N/A   Overcast
7:55 AM 55.4 °F 48.2 °F 77% 30.25 in 10.0 mi SSE 17.3 mph 21.9 mph N/A   Overcast
8:15 AM 57.2 °F 48.2 °F 72% 30.25 in 10.0 mi SSE 18.4 mph 24.2 mph N/A   Overcast
8:35 AM 57.2 °F 48.2 °F 72% 30.24 in 10.0 mi SSE 19.6 mph 24.2 mph N/A   Mostly Cloudy
8:55 AM 59.0 °F 46.4 °F 63% 30.23 in 10.0 mi SSE 21.9 mph 25.3 mph N/A   Mostly Cloudy
9:15 AM 60.8 °F 46.4 °F 59% 30.23 in 10.0 mi SSE 20.7 mph 26.5 mph N/A   Mostly Cloudy
9:35 AM 60.8 °F 46.4 °F 59% 30.22 in 10.0 mi SSE 27.6 mph 32.2 mph N/A   Scattered Clouds
9:55 AM 62.6 °F 46.4 °F 55% 30.21 in 10.0 mi SSE 27.6 mph 32.2 mph N/A   Clear
10:15 AM 64.4 °F 46.4 °F 52% 30.22 in 10.0 mi SSE 21.9 mph 26.5 mph N/A   Partly Cloudy
10:35 AM 64.4 °F 46.4 °F 52% 30.22 in 10.0 mi SSE 20.7 mph 31.1 mph N/A   Mostly Cloudy
10:55 AM 64.4 °F 48.2 °F 56% 30.23 in 10.0 mi South 23.0 mph 27.6 mph N/A   Mostly Cloudy
11:15 AM 64.4 °F 48.2 °F 56% 30.23 in 10.0 mi South 18.4 mph 26.5 mph N/A   Overcast
11:35 AM 64.4 °F 50.0 °F 59% 30.22 in 10.0 mi SSE 18.4 mph 24.2 mph N/A   Overcast
11:55 AM 64.4 °F 50.0 °F 59% 30.22 in 10.0 mi SSE 16.1 mph - N/A   Overcast
12:15 PM 64.4 °F 50.0 °F 59% 30.21 in 10.0 mi SSE 13.8 mph - N/A   Overcast
12:35 PM 64.4 °F 50.0 °F 59% 30.21 in 10.0 mi South 17.3 mph 23.0 mph N/A   Overcast
12:55 PM 66.2 °F 50.0 °F 56% 30.20 in 10.0 mi South 19.6 mph 25.3 mph N/A   Mostly Cloudy
1:15 PM 66.2 °F 50.0 °F 56% 30.19 in 10.0 mi SSE 17.3 mph 24.2 mph N/A   Overcast
1:35 PM 68.0 °F 51.8 °F 56% 30.18 in 10.0 mi SSE 16.1 mph 24.2 mph N/A   Mostly Cloudy
1:55 PM 69.8 °F 51.8 °F 53% 30.16 in 10.0 mi SSE 18.4 mph 25.3 mph N/A   Mostly Cloudy
2:15 PM 71.6 °F 53.6 °F 53% 30.15 in 10.0 mi SSE 21.9 mph 25.3 mph N/A   Scattered Clouds
2:35 PM 71.6 °F 53.6 °F 53% 30.13 in 10.0 mi SSE 21.9 mph 27.6 mph N/A   Clear
2:55 PM 73.4 °F 53.6 °F 50% 30.12 in 10.0 mi SSE 24.2 mph 32.2 mph N/A   Clear
3:15 PM 73.4 °F 53.6 °F 50% 30.11 in 10.0 mi SSE 27.6 mph 31.1 mph N/A   Clear
3:35 PM 73.4 °F 53.6 °F 50% 30.10 in 10.0 mi SSE 23.0 mph 32.2 mph N/A   Clear
3:55 PM 73.4 °F 53.6 °F 50% 30.09 in 10.0 mi SSE 24.2 mph 33.4 mph N/A   Clear
4:15 PM 75.2 °F 53.6 °F 47% 30.08 in 10.0 mi SSE 24.2 mph 32.2 mph N/A   Clear
4:35 PM 75.2 °F 53.6 °F 47% 30.08 in 10.0 mi South 21.9 mph 28.8 mph N/A   Clear
4:55 PM 75.2 °F 55.4 °F 50% 30.06 in 10.0 mi South 24.2 mph 32.2 mph N/A   Clear
5:15 PM 73.4 °F 53.6 °F 50% 30.04 in 10.0 mi South 24.2 mph 34.5 mph N/A   Clear
5:35 PM 71.6 °F 53.6 °F 53% 30.02 in 10.0 mi SSE 25.3 mph 32.2 mph N/A   Clear
5:55 PM 71.6 °F 53.6 °F 53% 30.00 in 10.0 mi South 24.2 mph 40.3 mph N/A   Clear
6:15 PM 71.6 °F 55.4 °F 57% 30.01 in 10.0 mi SSE 18.4 mph 27.6 mph N/A   Clear
6:35 PM 71.6 °F 55.4 °F 57% 30.01 in 10.0 mi South 25.3 mph - N/A   Clear
6:55 PM 71.6 °F 55.4 °F 57% 29.99 in 10.0 mi SSE 18.4 mph 25.3 mph N/A   Clear
7:15 PM 71.6 °F 55.4 °F 57% 30.01 in 10.0 mi South 8.1 mph - N/A   Clear
7:35 PM 71.6 °F 57.2 °F 60% 30.03 in 10.0 mi Calm Calm - N/A Rain Light Rain
7:55 PM 71.6 °F 59.0 °F 64% 30.03 in 10.0 mi SSW 11.5 mph 19.6 mph N/A   Overcast
8:15 PM 69.8 °F 59.0 °F 68% 30.03 in 10.0 mi South 11.5 mph - N/A   Overcast
8:35 PM 69.8 °F 57.2 °F 64% 30.03 in 10.0 mi South 11.5 mph - N/A   Overcast
8:55 PM 69.8 °F 57.2 °F 64% 30.04 in 10.0 mi South 9.2 mph - N/A   Overcast
9:15 PM 69.8 °F 57.2 °F 64% 30.03 in 10.0 mi SSE 12.7 mph 17.3 mph N/A   Overcast
9:35 PM 68.0 °F 57.2 °F 68% 30.04 in 10.0 mi SSE 12.7 mph - N/A   Overcast
9:55 PM 68.0 °F 57.2 °F 68% 30.04 in 10.0 mi SSE 11.5 mph - N/A   Overcast
10:15 PM 68.0 °F 57.2 °F 68% 30.06 in 10.0 mi SSE 8.1 mph - N/A   Overcast
10:35 PM 68.0 °F 59.0 °F 73% 30.07 in 10.0 mi SE 8.1 mph - N/A   Overcast
10:55 PM 68.0 °F 59.0 °F 73% 30.08 in 10.0 mi SSE 8.1 mph - N/A   Overcast
11:15 PM 68.0 °F 59.0 °F 73% 30.07 in 10.0 mi SE 9.2 mph - N/A   Overcast
11:35 PM 66.2 °F 59.0 °F 78% 30.06 in 10.0 mi SE 10.4 mph - N/A   Overcast
11:55 PM 66.2 °F 57.2 °F 73% 30.04 in 10.0 mi SE 15.0 mph - N/A   Overcast